Regional Weather Roundup
Issued by NWS Newport/Morehead, NC

Home | Current Version | Previous Version | Text Only | Print | Product List | Glossary On
Versions: 1 2 3 4 5 6 7 8 9 10 11 12 13 14 15 16 17 18 19 20 21 22 23 24 25 26 27 28 29 30 31 32 33 34 35 36 37 38 39 40 41 42 43 44 45 46 47 48 49 50
376
ASUS42 KMHX 182226
RWRMHX
WEATHER ROUNDUP FOR EASTERN NORTH CAROLINA
NATIONAL WEATHER SERVICE NEWPORT/MOREHEAD CITY NC
500 PM EST MON DEC 18 2017

NOTE: "FAIR" INDICATES FEW OR NO CLOUDS BELOW 12,000 FEET
WITH NO SIGNIFICANT WEATHER AND/OR OBSTRUCTIONS TO VISIBILITY

NCZ015>017-031-032-045>047-102-103-182300-
NORTH COAST

CITY           SKY/WX    TMP DP  RH WIND       PRES   REMARKS
EDENTON        CLEAR     55  46  73 CALM      30.07R
ELIZABETH CITY CLEAR     54  47  77 SW7       30.05R
KITTY HAWK     CLEAR     51  42  71 CALM      30.04S
MANTEO         CLEAR     50  43  77 CALM      30.06S

$$

NCZ045>047-081-094-103-104-182300-
CENTRAL COAST

CITY           SKY/WX    TMP DP  RH WIND       PRES   REMARKS
FRISCO         CLEAR     56  43  61 SW5       30.07S

$$

NCZ095-097-098-100-101-182300-
SOUTHERN COAST

CITY           SKY/WX    TMP DP  RH WIND       PRES   REMARKS
BEAUFORT       CLEAR     57  53  86 S7        30.08S
CEDAR ISLAND   NOT AVBL
JACKSONVILLE   CLEAR     58  53  84 S6        30.06F
PINEY ISLAND     N/A    N/A N/A N/A S8        30.06S
WILMINGTON     CLOUDY    63  56  78 CALM      30.08S


$$

NCZ011>013-027>030-043-044-078>080-089-090>093-098-182300-
COASTAL PLAIN

CITY           SKY/WX    TMP DP  RH WIND       PRES   REMARKS
AHOSKIE        CLEAR     54  45  72 CALM      30.06S
CLINTON        CLEAR     64  54  68 W3        30.08R
ELIZABETHTOWN  NOT AVBL
GOLDSBORO      MOCLDY    63  46  52 NW3       30.05R
GREENVILLE     PTCLDY    55  45  67 CALM      30.08R
HAVELOCK       MOCLDY    58  51  78 S8        30.07S
KENANSVILLE    CLEAR     63  52  67 SW6       30.07R
KINSTON        CLEAR     63  48  59 NW5       30.07R
NEW BERN       CLEAR     61  53  75 S8        30.06F
RICHLANDS      PTCLDY    62  56  80 SW6       30.07S
ROCKY MOUNT    CLEAR     53  48  83 CALM      30.07R
WASHINGTON     PTCLDY    57  47  69 CALM      30.07R
WHITEVILLE     CLOUDY    61  57  87 CALM      30.08S

$$

AMZ130-135-150-152-154-156-158-170-250-252-270-ANZ085-086-088-633-658-670-182300-
MARINE OBSERVATIONS

STATION/POSITION TIME  TEMP    WIND        PRES    WAVE   SWELL
                       AIR SEA DIR/SP/G            HT/PER HT/PER
                 (UTC) (F)     (DEG/KT/KT) (MB)    (FT/S) (FT/S)
CHESAPEAKE LIGHT NOT AVBL
64 E VA BEACH    2150   54 58  250/  8/ 10 1018.1    2/ 4   2/ 8
DUCK             2200   55 53  210/  5/  5 1016.8
2 E DUCK         2200      54                N/A     1/10
OREGON INLET     2200   51 51  190/  7/  8 1017.7
13E OREGON INLT  2148      54                N/A     2/ 9   2/ 9
HATTERAS CG      2200   56 55  180/  2/  3 1017.8
DIAMOND BUOY     2210   63 73  240/  6/  8 1018.3
CAPE LOOKOUT     2200          200/  6/  7 1018.7
BEAUFORT LAB     2200   55 51  190/  6/  6 1018.2
30 SE NEW RVR IN NOT AVBL
30 SE NEW RVR IN 2200      63                N/A     2/ 9
27 SE WRIGHTSVLE 2208   60 59  230/  8/ 14 1018.9
5 SE WRIGHTSVLE  2208   58 56  230/  8/ 14 1018.4
225 S CAPE HAT   2150   74 74  240/ 17/ 23 1020.4    5/ 6   2/ 9
41 SE CHARLESTON 2210   68 73  240/ 14/ 17 1020.3

$$




USA.gov is the U.S. government's official web portal to all federal, state and local government web resources and services.